Regional Weather Roundup
Issued by NWS Boston, MA

Home | Current Version | Previous Version | Text Only | Print | Product List | Glossary On
Versions: 1 2 3 4 5 6 7 8 9 10 11 12 13 14 15 16 17 18 19 20 21 22 23 24 25 26 27 28 29 30 31 32 33 34 35 36 37 38 39 40 41 42 43 44 45 46 47 48 49 50
000
ASUS41 KBOX 251710
RWRBOX

REGIONAL WEATHER ROUNDUP
NATIONAL WEATHER SERVICE TAUNTON MA
100 PM EDT FRI JUL 25 2014

NOTE:  "FAIR" INDICATES FEW OR NO CLOUDS BELOW 12,000 FEET WITH NO
SIGNIFICANT WEATHER AND/OR OBSTRUCTIONS TO VISIBILITY.  THE FOLLOWING
OBSERVATION LOCATIONS DO NOT REPORT PRESENT WEATHER...PROVINCETOWN...
SMITHFIELD...BLOCK ISLAND...KEENE...AND OXFORD.

MAZALL-251800-
EASTERN MASSACHUSETTS

CITY           SKY/WX    TMP DP  RH WIND       PRES   REMARKS
BOSTON         MOSUNNY   76  53  44 SE12      29.95F
BEVERLY        SUNNY     78  54  43 MISG      29.94F
LAWRENCE       SUNNY     77  56  48 NW6       29.96F
BEDFORD        MOSUNNY   77  55  46 SW6       29.95F
BLUE HILL        N/A     76  53  44 NW7       29.97F
NORWOOD        SUNNY     78  52  40 NW7       29.96F
MARSHFIELD     SUNNY     73  48  40 NE6       29.98S
PLYMOUTH       SUNNY     75  50  41 NE7       29.97S
TAUNTON        SUNNY     79  52  38 VRB6      29.95F
NEW BEDFORD    SUNNY     78  52  40 VRB7      29.96S
$$

MAZALL-251800-
CAPE COD AND THE ISLANDS

CITY           SKY/WX    TMP DP  RH WIND       PRES   REMARKS
FALMOUTH       SUNNY     75  50  41 VRB7      29.97S
HYANNIS        SUNNY     74  55  51 N7        29.96S
CHATHAM        SUNNY     75  57  53 MISG      29.97S
PROVINCETOWN   SUNNY     72  55  56 CALM      29.97F
NANTUCKET      MOSUNNY   73  60  63 VRB3      29.96S
MARTHAS VNYRD  SUNNY     75  56  51 N9        29.96S
$$

MAZALL-251800-
CENTRAL AND WESTERN MASSACHUSETTS

CITY           SKY/WX    TMP DP  RH WIND       PRES   REMARKS
WORCESTER      MOSUNNY   73  54  51 NW5       30.00F
FITCHBURG      MOSUNNY   80  55  42 NW5       29.98F
ORANGE         SUNNY     78  52  40 N8        29.98F
SPRINGFIELD    MOSUNNY   76  57  50 NW6       29.98F
WESTFIELD      MOSUNNY   79  56  45 CALM      29.98F
NORTH ADAMS    SUNNY     74  57  55 VRB3      30.01F
PITTSFIELD     SUNNY     73  57  57 NW6       30.02F
$$

RIZALL-251800-
RHODE ISLAND

CITY           SKY/WX    TMP DP  RH WIND       PRES   REMARKS
PROVIDENCE     MOSUNNY   79  51  37 N10       29.98S
NEWPORT        SUNNY     76  56  49 NW7       29.97F
BLOCK ISLAND   SUNNY     73  57  56 NE3       29.99S
SMITHFIELD     SUNNY     75  54  46 N3        30.00S
WESTERLY       SUNNY     78  52  40 VRB6      29.98F
$$

CTZALL-251800-
CONNECTICUT

CITY           SKY/WX    TMP DP  RH WIND       PRES   REMARKS
BRADLEY INTL   MOSUNNY   79  55  43 NE6       29.98F
HARTFORD       SUNNY     77  54  44 NE8       29.99F
BRIDGEPORT     SUNNY     78  56  46 SW12      30.00F
DANBURY        SUNNY     75  55  49 NW7       30.03F
GROTON         SUNNY     77  54  44 N9        29.97F
NEW HAVEN      MOSUNNY   79  58  48 VRB6      29.99F
CHESTER        FAIR      75  54  46 NW9       30.01S
MERIDEN        SUNNY     79  52  38 NW8       29.99F
WILLIMANTIC    SUNNY     76  54  46 VRB3      29.99F
OXFORD         MOSUNNY   73  55  53 N8        30.04S
$$

MEZ002-015-021-024-NHZ003-005-008-011-012-014-VTZ005-008-251800-
NORTHERN NEW ENGLAND

CITY           SKY/WX    TMP DP  RH WIND       PRES   REMARKS
PORTLAND ME    MOSUNNY   78  54  43 W12       29.92F
BANGOR ME      MOSUNNY   77  57  50 W8        29.88F
CONCORD NH     MOSUNNY   77  56  48 W9        29.95F
MANCHESTER NH  MOSUNNY   77  53  43 NW6       29.94F
NASHUA NH      MOSUNNY   78  54  43 W7        29.96F
PORTSMOUTH NH  MOSUNNY   79  56  44 VRB6      29.92F
JAFFREY NH     MOSUNNY   74  53  48 W8        30.00F
KEENE NH       SUNNY     75  52  43 NW5       29.99S
BURLINGTON VT  MOSUNNY   78  56  46 SW7       29.96S
MT. WASHINGTON PTSUNNY   46  45  93 W36G45      N/A  VSB 1
$$

NYZ052-076-251800-
EASTERN NEW YORK

CITY           SKY/WX    TMP DP  RH WIND       PRES   REMARKS
ALBANY         MOSUNNY   76  56  49 W6        30.00F
NEW YORK CITY  MOSUNNY   78  52  40 W8        30.00F
$$

ANZALL-251800-
MARINE OBSERVATIONS

STATION/POSITION TIME  TEMP    WIND        PRES    VSBY  WAVE
                       AIR SEA DIR/SP/G                  HT/PER
                 (UTC) (F)     (DEG/KT/KT) (MB)    (MI)  (FT/S)
BOSTON BUOY      NOT AVBL
BUZZARDS BAY     NOT AVBL
NANTUCKET SOUND  NOT AVBL
MASS BAY-STELLWA NOT AVBL
ISLE OF SHOALS   NOT AVBL
S OF BLOCK IS    NOT AVBL
$$

......................KEY.........................
  SKY/WX - SKY CONDITION/PRESENT WEATHER
  TMP    - TEMPERATURE IN FAHRENHEIT
  DWPT   - DEWPOINT IN FAHRENHEIT
  RH     - RELATIVE HUMIDITY IN PERCENT
  WIND   - DIRECTION AND SPEED IN MPH
  PRES   - MEAN SEA LEVEL PRESSURE IN INCHES OF HG
  WCI    - WIND CHILL INDEX
  VSB    - VISIBILITY IN MILES
  HX     - HEAT INDEX
  TC     - TEMPERATURE IN CELSIUS
  VRB    - VARIABLE WIND DIRECTION
  N/A    - NOT AVAILABLE



USA.gov is the U.S. government's official web portal to all federal, state and local government web resources and services.